Hourly Data Report for September 26, 2015

All times are specified in Local Standard Time (LST). Add 1 hour to adjust for Daylight Saving Time where and when it is observed.

TORONTO INTL A
ONTARIO

43°40'36.000" N
79°37'50.000" W
173.40 m
6158731
71624
YYZ

Download Data

Hourly Data (September 2015)
Hourly Data Report for September 26, 2015
Temp Definition
°C
Dew Point Temp Definition
°C
Rel Hum Definition
%
Wind Dir Definition
10's deg

Wind Spd Definition
km/h
Visibility Definition
km
Stn Press Definition
kPa
Hmdx Definition


Wind Chill Definition


Weather Definition


TIME
00:00 Legend Double Dagger 14.4 7.7 64 6 8 24.1 100.88     LegendNANA
01:00 Legend Double Dagger 13.5 6.7 63 6 11 24.1 100.88     Mostly Cloudy
02:00 Legend Double Dagger 13.0 6.0 62 6 13 24.1 100.90     LegendNANA
03:00 Legend Double Dagger 11.1 5.5 68 4 10 24.1 100.90     LegendNANA
04:00 Legend Double Dagger 10.4 5.2 70 4 12 24.1 100.91     Mainly Clear
05:00 Legend Double Dagger 10.1 4.9 70 4 10 24.1 100.94     LegendNANA
06:00 Legend Double Dagger 10.2 5.2 71 3 10 24.1 100.97     LegendNANA
07:00 Legend Double Dagger 11.4 6.2 70 3 12 24.1 101.01     Mostly Cloudy
08:00 Legend Double Dagger 13.7 7.3 65 6 11 24.1 101.03     LegendNANA
09:00 Legend Double Dagger 15.6 9.1 65 8 13 24.1 101.07     LegendNANA
10:00 Legend Double Dagger 16.8 9.8 63 9 16 24.1 101.07     Mostly Cloudy
11:00 Legend Double Dagger 17.8 10.0 60 10 17 24.1 101.05     LegendNANA
12:00 Legend Double Dagger 18.5 10.4 59 8 16 24.1 101.01     LegendNANA
13:00 Legend Double Dagger 19.3 10.9 58 11 16 24.1 100.96     Mostly Cloudy
14:00 Legend Double Dagger 19.7 11.3 58 10 19 24.1 100.87     LegendNANA
15:00 Legend Double Dagger 19.5 11.4 59 10 19 24.1 100.81     LegendNANA
16:00 Legend Double Dagger 19.0 10.7 58 9 17 24.1 100.78     Mostly Cloudy
17:00 Legend Double Dagger 18.7 9.9 56 11 18 24.1 100.77     LegendNANA
18:00 Legend Double Dagger 17.4 11.5 68 8 11 24.1 100.74     LegendNANA
19:00 Legend Double Dagger 16.6 12.0 74 9 9 24.1 100.74     Mostly Cloudy
20:00 Legend Double Dagger 16.1 12.3 78 10 7 24.1 100.75     LegendNANA
21:00 Legend Double Dagger 15.8 13.0 83 9 6 24.1 100.75     LegendNANA
22:00 Legend Double Dagger 15.7 13.7 88 8 5 24.1 100.74     Mainly Clear
23:00 Legend Double Dagger 15.6 14.0 90 8 5 24.1 100.72     LegendNANA

Notes on Data Quality.

Legend

  • E = Estimated
  • M = Missing
  • NA = Not Available
  • ‡ = Partner data that is not subject to review by the National Climate Archives
Date modified: